Showing default

LEGION 1, 59625

Orbit data source: Space-Track

LEGION 1, 59625 is a payload satellite owned by Maxar Intel (US) in SSO that was launched on Thu, 02 May 2024 UTC via an FALCON 9 launch vehicle from the Air Force Western Test Range (AFWTR). Payload-class satellites include a variety of spacecraft equipped with specific instruments for various scientific and technological missions. These include communications satellites like Starlink; space stations such as the ISS; scientific satellites like the Hubble; Earth observation satellites from companies like Planet Labs, Umbra, and HawkEye 360; GPS; miniature CubeSats for education and research; and military/defense satellites.

Loading next visibility...
Identifier
59625, 2024-081A
Orbit
SSO
Country
Flag of USUS
Related business
Manufacturer
Maxar Space Inf
Mission
Operational spacecraft
Bus & Motor
LEGION, Unknown motor
Mass
~700 kg wet, 630 kg dry
Launch date (UTC)
2024-05-02 (1 year ago)
Launch vehicle
FALCON 9
Launch site
Air Force Western Test Range (AFWTR)
Object type
Payload
Rocket body
Debris
Shape & HBR
Unknown
Radar Cross Section
Large (>1 m²)

Expand to show TLE details & history
Last TLE update: 13 hours ago

TLE from 13 hours ago
0 LEGION 1
1 59625U 24081A   25261.23884718  .00004477  00000-0  23257-3 0  9993
2 59625  97.5299 336.5162 0002767   9.1270 351.0013 15.16604789 76314
Epoch: 2025-09-18T05:43Z
TLE epoch observation values (Epoch: 2025-09-18T05:43:56.396Z)
Latitude
0.00001°
Longitude
-106.87209°
Altitude
517.308 km
Speed
7.606 km/s
True Right ascension
22h 26m 03s
True Declination
0° 00' 00"
Sunlit
Object was in full shadow at epoch
Visualization orbit readout
Latitude
Unknown
Longitude
Unknown
Altitude
Unknown
Speed
Unknown
Apparent Right ascension
Unknown
Apparent Declination
Unknown
Sunlit
N/A
Visualization observer readout
Local Sidereal Time
11:21:30
Azimuth
Unknown
Elevation
Unknown
Doppler factor
Unknown
Orbital elements
Apogee altitude
514.993 km
Perigee altitude
511.18 km
Semi-major axis
6,891.224 km
Eccentricity
0.00028
Inclination
97.5299°
RAAN
336.5162°
Arg. of periapsis
9.127°
True anomaly
350.99634°
Mean anomaly
351.0013°
Eccentric anomaly
350.99882°
Mean motion
3.79401 °/min
Orbital period
94.89 mins
BSTAR
0.00023257
Loading maneuver chart data...
Computing Atmospheric mass density...
Loading historical data...
Loading historical data...
Loading historical data...
Loading historical data...
Loading historical data...
Loading historical data...
Loading historical data...
Other satellites on launch #81 in the year 2024 (2024-05-02 UTC)

Documentation

Showing up to 5 results
|